User: anonymous   Login
Location: Home
(42.5358°N, 72.7383°W)
Time: 13:03:31
(UTC-05:00)
Language:

Courier 1B Rocket - Orbit

View from above orbital plane
View from above orbital plane
View from above satellite
View from above satellite

Ground track
Ground track

The orbit data is extracted from the following two-line orbital elements,

1 00059U 60013B   21333.53145812  .00000093  00000-0  10270-4 0  9991
2 00059  28.2497  15.2883 0189309  55.3158 306.5072 13.52990541 18081
Epoch (UTC): 29 November 2021 12:45:17
Eccentricity: 0.0189309
inclination: 28.2497°
perigee height: 920 km
apogee height: 1202 km
right ascension of ascending node: 15.2883°
argument of perigee: 55.3158°
revolutions per day: 13.52990541
mean anomaly at epoch: 306.5072°
orbit number at epoch: 1808

The dashed part of the orbit path shows where the satellite is in the earth's shadow,  

DLR